EHI
9 10 9 7 5 4 7 10 10 9 8 6 4 2 1 0 0 0 0 0 0 0 0 0 0 0 0 0 0 0 0 0 0 0 0 0 0 0 0 0 0 0 0
14 14 11 7 7 7 8 10 10 9 9 8 6 4 1 0 0 0 0 0 0 0 0 0 0 0 0 0 0 0 0 0 0 0 0 0 0 0 0 0 0 0 0
20 18 11 8 9 9 9 10 9 9 9 8 7 5 2 1 0 0 0 0 0 0 0 0 0 0 0 0 0 0 0 0 0 0 0 0 0 0 0 0 0 0 0
20 16 11 9 10 10 9 9 8 8 8 7 6 5 3 1 0 0 0 0 0 0 0 0 0 0 0 0 0 0 0 0 0 0 0 0 0 0 0 0 0 0 0
14 14 14 12 10 10 8 8 7 7 6 6 5 4 2 1 0 0 0 0 0 0 0 0 0 0 0 0 0 0 0 0 0 0 0 0 0 0 0 0 0 0 0
9 10 13 12 9 9 9 7 6 5 4 4 4 3 1 0 0 0 0 0 0 0 0 0 0 0 0 0 0 0 0 0 0 0 0 0 0 0 0 0 0 0 0
6 8 12 12 10 9 8 7 4 3 3 3 3 2 1 0 0 0 0 0 0 0 0 0 0 0 0 0 0 0 0 0 0 0 0 0 0 0 0 0 0 0 0
5 8 12 13 11 10 8 6 4 3 3 3 2 1 0 0 0 0 0 0 0 0 0 0 0 0 0 0 0 0 0 0 0 0 0 0 0 0 0 0 0 0 0
5 7 11 12 11 10 8 7 5 4 3 2 1 0 0 0 0 0 0 0 0 0 0 0 0 0 0 0 0 0 0 0 0 0 0 0 0 0 0 0 0 0 0
7 7 9 10 10 9 8 7 5 3 1 1 1 1 0 0 0 0 0 0 0 0 0 0 0 0 0 0 0 0 0 0 0 0 0 0 0 0 0 0 0 0 0
16 11 9 10 10 8 6 6 5 2 0 0 1 1 0 0 0 0 0 0 0 0 0 0 0 0 0 0 0 0 0 0 0 0 0 0 0 0 0 0 0 0 0
28 19 12 12 10 7 5 5 5 4 2 1 1 1 0 0 0 0 0 0 0 0 0 0 0 0 0 0 0 0 0 0 0 0 0 0 0 0 0 0 0 0 0
33 23 15 13 12 8 5 6 7 8 6 4 3 1 0 1 1 1 0 0 0 0 0 0 0 0 0 0 0 0 0 0 0 0 0 0 0 0 0 0 0 0 0
31 23 15 15 16 14 10 8 8 8 8 7 5 2 1 2 2 1 1 0 0 0 0 0 0 0 0 0 0 0 0 0 0 0 1 1 0 0 0 0 0 0 0
29 25 20 19 20 20 17 12 8 7 7 8 6 2 2 3 3 2 1 0 0 0 0 0 0 0 0 0 0 0 0 0 0 0 1 1 0 0 0 0 0 0 0
28 29 26 24 23 22 19 15 10 8 8 7 5 3 2 2 3 2 2 1 0 0 0 0 0 0 0 0 0 0 0 0 0 0 0 0 0 0 0 0 0 0 0
28 28 26 22 21 21 18 16 13 10 8 7 6 5 3 2 2 2 2 1 0 0 0 0 0 0 0 0 0 0 0 0 0 0 0 0 0 0 0 0 0 0 0
25 25 22 17 17 20 21 19 15 11 8 8 7 5 3 1 1 1 2 2 1 0 0 0 0 0 0 0 0 0 0 0 0 0 0 1 1 1 0 0 0 0 0
25 24 21 17 16 19 23 23 19 14 10 9 8 6 4 2 1 1 2 2 1 1 0 0 0 1 0 0 0 0 0 0 0 0 0 1 1 1 0 0 1 0 0
25 25 24 21 19 21 24 24 20 15 11 9 9 9 6 4 1 1 1 1 0 0 0 0 0 0 0 0 0 0 0 0 1 1 1 0 0 0 0 0 0 0 0
26 27 27 25 23 24 25 23 17 12 9 8 9 10 8 4 2 0 0 0 0 0 0 0 0 0 0 0 0 0 0 0 1 1 1 0 0 0 0 0 0 0 0
31 30 28 26 24 23 23 20 16 12 9 8 9 10 8 5 3 1 0 0 0 0 0 0 0 0 0 0 0 0 0 0 0 0 0 0 0 0 0 0 0 0 0
33 30 26 24 22 20 18 17 15 12 9 9 11 11 8 6 4 2 1 0 0 0 1 0 0 0 0 0 0 0 0 0 0 0 0 0 0 0 0 0 0 0 0
28 26 24 23 20 17 15 13 12 10 9 10 12 11 8 6 5 4 3 1 0 0 0 0 0 0 0 0 0 0 0 0 0 0 0 0 0 0 0 0 0 0 0
24 23 21 21 19 17 14 12 10 9 10 11 11 10 9 7 5 4 3 2 1 0 0 0 0 0 0 0 0 0 0 0 0 0 0 0 0 0 0 0 0 0 0
22 20 18 19 20 18 14 12 11 10 9 10 9 9 9 8 5 3 2 2 1 0 1 1 1 0 0 0 0 0 0 0 0 0 0 0 0 0 0 0 0 0 0
Wind_Speed
14 17 18 16 16 16 16 15 15 15 14 14 14 13 13 12 12 12 12 12 12 12 12 12 12 12 12 12 12 12 12 12 12 13 13 13 12 12 12 11 11 13 14
17 19 18 16 16 16 16 15 15 14 14 14 13 13 12 12 12 12 11 11 11 12 12 12 12 12 12 12 12 12 12 12 12 12 13 13 12 11 9 8 10 12 13
19 19 19 16 16 16 15 15 15 14 14 14 13 13 12 12 11 11 12 11 11 12 12 12 12 12 12 12 11 11 11 11 11 9 9 10 12 10 11 12 14 14 13
19 19 18 18 16 16 15 15 15 14 14 13 13 12 12 11 11 12 12 12 12 12 12 12 12 12 11 11 11 10 11 10 8 6 5 9 11 12 11 12 12 12 12
18 18 19 19 17 16 15 15 14 14 14 13 13 12 11 11 11 12 12 12 12 12 12 11 11 11 10 10 10 10 10 8 5 4 8 8 10 11 11 11 11 12 12
18 18 20 18 17 17 16 15 14 14 13 13 12 12 11 11 11 11 11 11 11 11 11 11 10 10 9 8 8 9 8 6 7 7 7 8 10 10 10 11 11 11 11
18 17 20 18 17 16 16 15 14 13 13 12 12 11 11 11 10 11 11 11 11 11 10 10 10 9 8 7 7 7 6 3 2 7 6 8 10 9 9 10 10 11 11
17 18 19 18 17 16 15 15 14 13 13 12 11 11 11 10 10 10 10 11 10 10 10 9 9 8 7 6 6 6 5 5 6 7 7 9 10 8 9 9 10 10 10
16 17 17 17 16 16 14 14 14 13 12 12 11 11 10 10 10 10 10 10 10 9 9 8 8 7 7 6 6 6 4 4 1 5 6 8 9 8 9 9 9 9 9
14 15 16 16 15 14 14 14 13 13 12 12 11 11 10 10 10 9 10 9 9 8 8 7 7 7 7 6 6 6 5 6 3 5 5 9 9 8 8 9 8 9 8
14 13 14 14 13 13 13 14 13 13 11 11 11 11 9 8 9 9 9 9 7 7 7 6 6 6 5 8 6 5 6 3 4 3 5 11 7 7 7 8 7 7 7
16 14 12 14 13 12 10 11 9 9 10 8 8 9 6 5 4 6 11 7 7 6 6 5 4 5 6 5 7 7 3 3 3 3 7 9 6 6 7 7 7 7 7
16 14 13 12 11 11 8 8 6 5 6 6 8 7 5 5 5 5 6 7 7 7 5 6 6 3 2 2 1 1 2 1 2 3 8 8 5 6 6 7 6 6 6
16 15 14 13 11 10 8 7 6 6 6 6 7 7 6 4 3 4 3 4 4 3 2 2 2 2 1 2 1 1 1 1 2 3 7 7 5 5 6 7 6 6 5
17 16 14 13 12 10 8 6 7 6 6 6 6 6 5 4 4 4 3 2 2 2 3 2 2 2 2 2 1 1 1 1 2 1 5 6 5 4 5 6 7 7 6
17 17 15 13 12 11 9 7 6 6 5 5 5 6 6 4 4 4 4 3 2 2 1 1 2 2 1 1 1 1 1 1 2 1 3 6 7 5 5 5 6 7 7
15 15 15 13 12 11 10 9 6 6 6 5 5 6 6 5 4 4 3 3 2 2 3 2 2 2 2 2 2 2 2 1 1 2 2 2 5 8 6 5 6 6 7
14 14 14 12 12 11 9 8 6 6 6 5 5 5 6 5 5 4 3 3 3 3 3 3 3 2 1 1 1 1 1 2 2 2 3 3 2 3 7 7 6 6 6
14 14 14 13 13 12 10 8 7 6 6 5 5 5 5 5 5 4 2 2 3 3 2 3 2 1 1 1 2 2 1 1 1 2 2 2 2 2 3 7 6 5 5
14 13 13 13 12 12 9 8 6 7 6 5 5 5 6 5 5 4 3 3 3 3 2 1 2 1 1 1 2 1 0 1 1 1 2 2 3 3 3 3 4 6 6
13 14 14 13 13 11 8 8 8 7 7 6 6 7 6 5 5 3 3 4 3 2 2 3 3 4 2 1 2 2 3 2 2 2 1 0 2 2 2 2 2 1 4
15 14 14 14 13 12 9 7 6 7 6 6 6 6 6 6 5 5 3 3 3 3 3 3 2 2 2 2 2 2 3 4 3 3 2 2 1 2 2 3 3 1 0
16 16 14 14 14 13 11 8 7 6 6 6 7 6 6 6 5 3 4 3 3 4 4 3 4 4 2 3 2 3 2 1 4 4 2 2 2 1 2 3 3 2 2
15 15 14 14 13 13 12 11 12 9 8 8 7 6 7 6 6 5 5 4 3 3 3 4 3 3 3 3 3 1 3 4 2 3 4 4 3 2 2 1 3 4 3
15 14 14 14 13 13 12 12 11 9 7 7 7 8 7 6 6 6 5 4 4 3 3 1 2 3 3 3 2 3 2 2 4 3 3 4 4 3 2 2 2 2 3
13 14 14 14 13 13 13 12 11 10 9 10 9 9 7 6 6 6 6 5 4 3 4 3 3 3 1 1 1 2 2 2 3 2 2 3 3 3 2 1 1 1 1
Wind_Direction
151 141 143 146 143 139 136 133 131 130 129 126 123 120 116 113 111 109 107 104 103 104 104 102 103 102 102 103 104 104 103 102 102 104 106 105 106 109 115 124 129 108 108
146 141 145 147 145 141 138 135 132 130 129 126 123 121 117 114 112 110 108 105 104 103 102 101 101 100 101 102 103 105 104 103 103 108 114 111 104 103 106 96 83 103 113
144 142 149 148 146 143 139 137 134 132 130 127 124 121 118 116 114 112 109 106 104 103 102 101 101 100 100 101 102 104 107 107 109 126 150 124 110 104 100 96 99 111 113
146 147 151 147 147 144 141 139 137 134 131 128 126 122 119 117 115 113 109 107 105 104 103 102 102 101 100 100 101 103 107 111 123 174 142 109 112 107 107 107 109 113 115
149 148 142 150 148 146 144 141 139 136 133 130 127 124 121 120 117 114 109 107 105 104 103 102 102 102 103 104 103 105 107 116 157 178 96 101 104 112 114 114 114 114 116
152 149 143 153 149 147 146 144 141 138 135 132 129 125 122 119 116 115 112 109 106 105 104 103 103 104 104 105 107 109 114 144 198 104 109 111 108 117 119 118 117 117 115
153 148 145 153 150 149 148 146 143 141 138 135 132 127 122 120 118 117 115 111 108 106 104 102 100 100 101 106 112 115 125 205 127 105 110 100 101 117 120 121 121 120 118
154 149 144 152 152 151 150 149 147 145 141 138 135 130 127 124 121 118 114 112 110 109 108 105 102 100 95 100 113 123 142 238 131 115 109 103 104 121 122 121 121 121 120
156 151 151 156 155 155 153 151 150 149 145 142 139 135 132 128 123 119 116 116 115 113 111 109 105 100 95 96 108 125 144 277 159 117 113 103 115 122 124 125 123 123 123
159 156 157 158 158 160 158 155 153 152 149 145 144 140 134 132 130 131 136 119 118 117 114 108 104 101 99 99 107 122 154 228 150 124 111 108 123 129 127 128 129 127 126
164 161 162 157 160 165 160 152 158 156 151 151 151 146 163 162 146 158 113 120 124 121 114 107 106 108 125 125 119 144 192 204 112 100 93 105 131 137 137 138 138 136 135
169 167 167 162 163 166 158 154 164 164 158 172 154 160 169 137 140 125 117 129 127 126 129 115 122 172 213 150 145 190 189 147 122 120 103 121 143 150 148 147 150 150 149
170 169 167 163 167 166 159 160 163 158 158 165 155 162 151 156 154 147 151 154 154 167 163 151 189 188 150 79 102 145 90 120 105 110 111 134 155 166 160 158 162 164 162
173 174 169 165 169 173 167 160 162 162 166 165 159 174 162 163 158 149 162 148 158 158 147 173 154 123 102 115 96 72 123 151 96 88 113 141 160 169 169 168 171 175 179
176 176 172 173 171 172 169 173 169 168 170 161 164 173 171 167 168 157 152 161 176 156 167 177 159 135 145 149 153 101 62 80 96 117 120 142 161 172 177 180 181 183 190
181 176 173 177 174 173 173 175 169 170 171 169 171 168 182 177 163 168 171 178 178 186 160 182 148 168 189 136 173 144 225 165 145 180 140 149 161 169 179 182 183 188 195
181 175 175 177 175 176 177 179 177 175 174 172 166 168 182 181 165 179 173 186 174 165 168 199 177 188 191 183 175 177 190 222 172 182 191 168 163 166 174 185 188 191 196
180 176 176 177 176 178 179 181 179 178 172 171 167 168 177 175 175 190 187 176 169 188 188 182 211 199 178 205 181 203 166 175 193 190 194 187 193 162 167 176 186 192 198
180 177 177 180 179 180 178 177 180 175 175 174 170 171 169 175 179 196 189 148 189 187 191 212 155 224 189 218 192 178 206 182 180 201 193 186 179 197 180 156 171 183 197
180 180 179 178 179 178 174 172 175 176 177 176 173 168 170 174 180 191 180 176 201 186 185 185 156 202 233 236 248 123 160 149 184 158 209 178 180 195 193 167 177 182 182
180 182 182 179 177 176 172 174 176 178 178 175 173 166 173 173 173 193 188 166 208 188 189 182 196 180 200 202 216 180 155 154 128 140 137 190 151 147 142 155 181 174 168
183 183 183 183 179 180 176 173 175 171 173 168 164 164 176 176 181 187 188 189 183 169 175 182 207 228 180 197 252 219 183 159 150 113 137 149 137 146 141 130 109 118 273
187 184 181 179 178 179 172 167 163 161 167 164 167 169 174 175 179 180 176 190 183 200 170 189 199 218 205 185 257 283 268 189 142 130 108 97 94 99 122 116 117 107 113
185 181 177 176 176 175 175 176 176 180 179 173 172 162 164 173 172 174 176 175 194 193 163 198 180 211 225 206 177 258 329 358 281 157 158 133 117 97 71 79 103 106 102
180 176 174 176 178 177 182 181 184 185 177 167 166 156 166 163 172 176 172 172 179 184 164 174 158 228 215 236 202 188 181 204 262 258 160 155 152 133 124 116 84 88 91
177 175 173 174 177 179 183 185 189 185 176 169 172 166 173 167 171 173 170 169 177 165 161 168 176 179 232 288 273 229 223 229 237 244 210 198 175 137 125 85 148 122 110